Content
SEND FEEDBACK

Daily
Averages
Monthly
Summary
Turkmenistan

KURTILE, TURKMENISTAN


Home > Asia > Turkmenistan
Elevation: 748 feet     Latitude: 37 58N     Longitude: 058 19E

WEATHER
 
SELECT A DAY
Number of Records: 181,182;   Date Range: 3/15/97 - 10/21/14
 
SHARE

PRINT THIS DATA

[ ← Previous Day ]
WEATHER ALMANAC - JANUARY 10, 2013
[ Next Day → ]
[ °C ]   °F
Weather ElementAverageHighLow
Temperature56 °F71.6 °F (4:00 pm)42.8 °F (6:00 am)
Dewpoint30.6 °F39.2 °F (11:00 pm)22 °F (2:00 am)
Humidity37.9 %62 % (11:00 pm)10 % (2:00 pm)
Barometer29.64 in29.76 in (2:00 am)29.56 in (3:00 pm)
Wind Speed5.7 mph11.2 mph (10:00 pm)
Wind Gust22.4 mph (10:00 pm)
Weather ElementAverage
Visibility6.2 mi
Wind DirectionSSE (167 °)

Weather ElementTotal
Precipitation---
Heating Degree Days7.8 (Base 65)
Growing Degree Days7.2 (Base 50)
Averaged from 30 records on January 10, 2013
WEATHER CONDITIONS BREAKOUT
WIND DIRECTION BREAKOUT
WEATHER BY HOUR - JANUARY 10, 2013
[ °C ]   °F
Local TimeTemperatureDewpointHumidityBarometerVisibilityWind DirectionWind SpeedGust SpeedPrecipitationEventsConditions
1:00 AM50.0 °F30.2 °F47 %29.74 in6.2 miSouth (170°)4.5 mphPartly Cloudy
2:00 AM48.0 °F22.0 °F23 %29.76 in6.0 miSouth (170°)8.9 mphScattered Clouds
2:00 AM50.0 °F30.2 °F47 %29.74 in6.2 miNW (320°)6.7 mphPartly Cloudy
3:00 AM48.2 °F30.2 °F50 %29.71 in6.2 miSSE (160°)4.5 mphPartly Cloudy
4:00 AM48.2 °F30.2 °F50 %29.71 in6.2 miESE (110°)4.5 mphClear
5:00 AM48.0 °F30.0 °F37 %29.73 in6.0 miSSW (210°)2.2 mph
5:00 AM46.4 °F30.2 °F53 %29.68 in6.2 miSE (140°)8.9 mphClear
6:00 AM42.8 °F30.2 °F61 %29.68 in6.2 miVariable2.2 mphClear
7:00 AM42.8 °F30.2 °F61 %29.65 in6.2 miSSE (150°)6.7 mphClear
8:00 AM44.6 °F28.4 °F53 %29.68 in6.2 miSW (220°)4.5 mphClear
9:00 AM44.6 °F30.2 °F57 %29.68 in6.2 miVariable2.2 mphClear
10:00 AM55.4 °F30.2 °F38 %29.68 in6.2 miWNW (290°)4.5 mphScattered Clouds
11:00 AM59.0 °F29.0 °F20 %29.69 in6.0 miENE (70°)4.5 mphScattered Clouds
11:00 AM62.6 °F26.6 °F26 %29.68 in6.2 miEast (80°)4.5 mphMostly Cloudy
12:00 PM64.4 °F26.6 °F24 %29.65 in6.2 miVariable2.2 mphMostly Cloudy
1:00 PM64.4 °F28.4 °F26 %29.62 in6.2 miEast (90°)2.2 mphMostly Cloudy
2:00 PM67.0 °F24.0 °F10 %29.60 in6.0 miSE (130°)8.9 mphPartly Cloudy
2:00 PM68.0 °F28.4 °F23 %29.59 in6.2 miEast (80°)6.7 mphMostly Cloudy
3:00 PM62.6 °F33.8 °F34 %29.56 in6.2 miESE (110°)4.5 mphMostly Cloudy
4:00 PM71.6 °F30.2 °F22 %29.56 in6.2 miEast (90°)4.5 mphMostly Cloudy
5:00 PM66.0 °F31.0 °F16 %29.56 in6.0 miWNW (300°)8.9 mphScattered Clouds
5:00 PM69.8 °F26.6 °F20 %29.56 in6.2 miNorth (350°)8.9 mphScattered Clouds
6:00 PM64.4 °F32.0 °F30 %29.56 in6.2 miENE (60°)4.5 mphMostly Cloudy
7:00 PM57.2 °F37.4 °F48 %29.56 in6.2 miNNE (30°)4.5 mphScattered Clouds
8:00 PM60.0 °F34.0 °F26 %29.57 in6.0 miNW (320°)8.9 mphScattered Clouds
8:00 PM57.2 °F35.6 °F44 %29.56 in6.2 miNNW (340°)4.5 mphPartly Cloudy
9:00 PM57.2 °F32.0 °F38 %29.56 in6.2 miSSE (160°)4.5 mphPartly Cloudy
10:00 PM55.4 °F33.8 °F44 %29.62 in6.2 miWest (280°)11.2 mph22.4 mphScattered Clouds
11:00 PM52.0 °F37.0 °F46 %29.66 in6.0 miWNW (300°)8.9 mphPartly Cloudy
11:00 PM51.8 °F39.2 °F62 %29.65 in6.2 miWest (280°)6.7 mphMostly Cloudy
Hourly data recorded from UTAA, located miles away from Kurtile, Turkmenistan







STORIES FROM OUR PARTNERS